TimeCST,TemperatureF,Dew PointF,Humidity,Sea Level PressureIn,VisibilityMPH,Wind Direction,Wind SpeedMPH,Gust SpeedMPH,PrecipitationIn,Events,Conditions,WindDirDegrees,DateUTC
12:53 AM,21.9,16.0,78,30.29,10.0,Calm,Calm,-,N/A,,Clear,0,2012-11-14 06:53:00
1:53 AM,19.9,16.0,85,30.30,10.0,Calm,Calm,-,N/A,,Clear,0,2012-11-14 07:53:00
2:53 AM,19.0,15.1,85,30.31,10.0,Calm,Calm,-,N/A,,Clear,0,2012-11-14 08:53:00
3:53 AM,18.0,15.1,88,30.30,10.0,South,5.8,-,N/A,,Clear,190,2012-11-14 09:53:00
4:53 AM,15.1,12.0,88,30.30,10.0,Calm,Calm,-,N/A,,Clear,0,2012-11-14 10:53:00
5:53 AM,16.0,12.9,88,30.32,10.0,Calm,Calm,-,N/A,,Clear,0,2012-11-14 11:53:00
6:53 AM,15.1,12.0,88,30.33,10.0,Calm,Calm,-,N/A,,Clear,0,2012-11-14 12:53:00
7:53 AM,15.1,10.9,84,30.33,10.0,Calm,Calm,-,N/A,,Clear,0,2012-11-14 13:53:00
8:53 AM,28.9,24.1,82,30.34,10.0,WSW,6.9,-,N/A,,Clear,240,2012-11-14 14:53:00
9:53 AM,39.0,28.0,65,30.31,10.0,SSW,4.6,-,N/A,,Clear,210,2012-11-14 15:53:00
10:53 AM,46.9,28.9,50,30.30,10.0,SSW,8.1,-,N/A,,Clear,200,2012-11-14 16:53:00
11:53 AM,51.1,27.0,39,30.26,10.0,SW,9.2,-,N/A,,Clear,230,2012-11-14 17:53:00
12:53 PM,54.0,26.1,34,30.22,10.0,SSW,12.7,-,N/A,,Clear,210,2012-11-14 18:53:00
1:53 PM,55.0,25.0,31,30.19,10.0,SSW,15.0,21.9,N/A,,Clear,210,2012-11-14 19:53:00
2:53 PM,54.0,25.0,33,30.17,10.0,South,16.1,24.2,N/A,,Clear,190,2012-11-14 20:53:00
3:53 PM,53.1,25.0,34,30.16,10.0,SSE,8.1,-,N/A,,Clear,160,2012-11-14 21:53:00
4:53 PM,51.1,25.0,36,30.16,10.0,SSE,6.9,-,N/A,,Clear,150,2012-11-14 22:53:00
5:53 PM,48.9,25.0,39,30.16,10.0,South,6.9,-,N/A,,Clear,170,2012-11-14 23:53:00
6:53 PM,43.0,24.1,47,30.17,10.0,SE,4.6,-,N/A,,Clear,130,2012-11-15 00:53:00
7:53 PM,39.0,24.1,55,30.19,10.0,Calm,Calm,-,N/A,,Clear,0,2012-11-15 01:53:00
8:53 PM,42.1,23.0,47,30.17,10.0,Calm,Calm,-,N/A,,Clear,0,2012-11-15 02:53:00
9:53 PM,39.0,23.0,53,30.18,10.0,Calm,Calm,-,N/A,,Mostly Cloudy,0,2012-11-15 03:53:00
10:53 PM,35.1,23.0,61,30.18,10.0,Calm,Calm,-,N/A,,Overcast,0,2012-11-15 04:53:00
11:53 PM,35.1,23.0,61,30.17,10.0,SSW,4.6,-,N/A,,Mostly Cloudy,210,2012-11-15 05:53:00